Location: Newark
(51.6850°N, 0.3180°W)
Time: 04:07:12
(UTC+00:00)

Envisat - Visible Passes

Search period start: 19 October 2019 00:00
Search period end: 29 October 2019 00:00
Orbit: 764 x 766 km, 98.1° (Epoch: 18 October)

Date Brightness Start Highest point End Pass type
(mag) Time Alt. Az. Time Alt. Az. Time Alt. Az.
19 Oct 3.4 18:10:03 10° S 18:15:05 67° WSW 18:20:11 10° NNW visible
19 Oct 6.3 19:53:57 10° W 19:55:07 11° W 19:56:18 10° WNW visible
20 Oct 3.0 17:33:18 10° SSE 17:38:19 65° ENE 17:43:23 10° N visible
20 Oct 5.5 19:13:56 10° SW 19:17:48 22° W 19:21:42 10° NW visible
21 Oct 6.2 05:37:56 10° NE 05:40:52 15° E 05:43:47 10° ESE visible
21 Oct 4.4 18:35:55 10° SSW 18:40:42 41° W 18:45:32 10° NNW visible
22 Oct 3.1 17:58:43 10° SSE 18:03:48 81° WSW 18:08:56 10° NNW visible
22 Oct 6.1 19:41:13 10° WSW 19:43:40 13° W 19:46:08 10° NW visible
23 Oct 5.8 06:02:35 10° NE 06:06:42 24° E 06:10:48 10° SE visible
23 Oct 3.1 17:22:10 10° SE 17:27:06 53° ENE 17:32:03 10° N visible
23 Oct 5.2 19:02:12 10° SSW 19:06:25 26° W 19:10:41 10° NW visible
24 Oct 6.4 05:27:23 10° ENE 05:29:26 12° E 05:31:29 10° ESE visible
24 Oct 3.9 18:24:27 10° S 18:29:23 50° W 18:34:22 10° NNW visible
25 Oct 3.0 17:47:27 10° SSE 17:52:32 84° ENE 17:57:39 10° NNW visible
25 Oct 5.9 19:29:03 10° SW 19:32:15 17° W 19:35:26 10° NW visible
26 Oct 6.0 05:51:35 10° NE 05:55:19 20° E 05:59:01 10° SE visible
26 Oct 4.9 18:50:33 10° SSW 18:55:03 32° W 18:59:36 10° NNW visible
27 Oct 3.5 18:13:03 10° S 18:18:04 62° WSW 18:23:08 10° NNW visible
28 Oct 3.0 17:36:15 10° SSE 17:41:17 70° ENE 17:46:22 10° N visible
28 Oct 5.6 19:17:07 10° SW 19:20:50 20° W 19:24:34 10° NW visible
